{"data":{"norad_id":57476,"intl_designator":"2023-107V","name":"STARLINK-30161","alt_names":[],"object_type":"PAYLOAD","status":"ACTIVE","operator":null,"country":"US","launch_date":"2023-07-28","launch_site_code":"AFETR","launch_vehicle":null,"mission":null,"orbit_class":"UNKNOWN","rcs_meters":null,"size_class":null,"mass_kg":null,"dimensions":null,"purposes":["comms"],"wikipedia_slug":null,"has_3d_model":false,"image_url":null,"decayed_at":null,"tle_current":{"epoch":"2026-05-25T00:22:55.147584Z","epoch_age_seconds":70781,"freshness":"FRESH","line1":"1 57476U 23107V   26145.01591606  .00000387  00000+0  23575-4 0  9991","line2":"2 57476  43.0016 264.7562 0001405 266.1927  93.8764 15.27574720156829","mean_motion":15.2757472,"eccentricity":0.0001405,"inclination_deg":43.0016,"raan_deg":264.7562,"arg_perigee_deg":266.1927,"mean_anomaly_deg":93.8764,"bstar":2.3575e-5,"rev_number":15682,"period_min":94.267074542841,"perigee_km":482.10090743683,"apogee_km":484.0289051725,"semimajor_km":6861.2019063047,"source":"CELESTRAK","updated_at":"2026-05-25T13:38:18.326303Z"}}}